Flag for Turkey Weather past 2 weeks in Gaziantep, Turkey

Now
82 °F

Passing clouds.


Feels Like: 80 °F
Forecast: 51 / 79 °F
Wind: 13 mph from Southwest

Location: Gaziantep Airport

Current Time: May 25, 2015 at 12:51:30 PM

Latest Report: May 25, 2015 at 12:20 PM


Visibility: N/A

Pressure: 29.92 "Hg

Humidity: 23%

Dew point: 41 °F

Location of GaziantepLocation

Historic Weather in Gaziantep — Graph

°F

Gaziantep temperature yesterday

Maximum temperature yesterday: 86 °F (at 1:50 PM)
Minimum temperature yesterday: 59 °F (at 5:50 AM)
Average temperature yesterday: 73 °F

Past Weeks' High & Low Weather Summary

 TemperatureHumidityPressure
High91 °F (May 20, 1:50 PM)94% (May 10, 11:50 PM)30.18 "Hg (May 10, 11:50 PM)
Low48 °F (May 12, 5:50 AM)13% (May 20, 4:20 PM)29.74 "Hg (May 10, 2:50 PM)
Average68 °F54%29.93 "Hg
* Reported May 10 11:20 AM — May 25 11:50 AM, Gaziantep, Weather by CustomWeather, © 2015

Note: Actual official high and low records may vary slightly from our data, if they occured in-between our weather recording intervals... More about our weather records

Advertising

Gaziantep weather history for previous 24 hours

 ConditionsComfort  
Time TempWeatherWind HumidityBarometerVisibility
11:50 AM
Mon, May 25
81 °FPassing clouds.13 mph21%29.92 "HgN/A
11:20 AM81 °FSunny.12 mph24%29.95 "Hg10 mi
10:50 AM81 °FSunny.10 mph28%29.95 "Hg10 mi
10:20 AM79 °FSunny.12 mph28%29.95 "Hg10 mi
9:50 AM79 °FPassing clouds.9 mph30%29.95 "HgN/A
9:20 AM77 °FSunny.9 mph34%29.95 "Hg10 mi
8:50 AM75 °FSunny.9 mph41%29.95 "Hg10 mi
8:20 AM73 °FSunny.7 mph47%29.95 "Hg10 mi
7:50 AM70 °FSunny.No wind60%29.95 "Hg10 mi
7:20 AM66 °FSunny.No wind68%29.95 "Hg10 mi
6:50 AM63 °FSunny.No wind73%29.92 "Hg10 mi
6:20 AM59 °FSunny.No wind77%29.92 "Hg10 mi
5:50 AM57 °FClear.No wind82%29.92 "Hg10 mi
5:20 AM55 °FClear.No wind88%29.92 "Hg10 mi
4:50 AM55 °FClear.2 mph82%29.89 "Hg10 mi
4:20 AM57 °FClear.1 mph77%29.89 "Hg10 mi
3:50 AM57 °FClear.No wind88%29.89 "Hg10 mi
3:20 AM61 °FClear.No wind72%29.89 "Hg10 mi
2:50 AM61 °FClear.2 mph77%29.89 "Hg10 mi
2:20 AM63 °FClear.No wind73%29.89 "Hg10 mi
1:50 AM61 °FClear.2 mph77%29.89 "Hg10 mi
1:20 AM63 °FPassing clouds.3 mph77%29.92 "HgN/A
12:50 AM63 °FClear.5 mph77%29.92 "Hg10 mi
12:20 AM64 °FClear.6 mph73%29.92 "Hg10 mi
11:50 PM
Sun, May 24
66 °FClear.8 mph68%29.92 "Hg10 mi
11:20 PM66 °FClear.5 mph68%29.92 "Hg10 mi
10:50 PM66 °FClear.2 mph68%29.92 "Hg10 mi
10:20 PM66 °FClear.No wind68%29.95 "Hg10 mi
9:50 PM66 °FClear.6 mph68%29.92 "Hg10 mi
9:20 PM70 °FClear.5 mph60%29.92 "Hg10 mi
8:50 PM72 °FPassing clouds.No wind53%29.92 "HgN/A
8:20 PM73 °FScattered clouds.6 mph50%29.92 "HgN/A
7:50 PM75 °FScattered clouds.10 mph47%29.92 "HgN/A
7:20 PM77 °FScattered clouds.13 mph42%29.89 "HgN/A
6:50 PM81 °FScattered clouds.20 mph32%29.89 "HgN/A
6:20 PM81 °FScattered clouds.13 mph30%29.89 "HgN/A
5:50 PM81 °FScattered clouds.12 mph32%29.89 "HgN/A
5:20 PM84 °FScattered clouds.9 mph27%29.86 "HgN/A
4:50 PM84 °FScattered clouds.10 mph27%29.86 "HgN/A
4:20 PM84 °FScattered clouds.10 mph27%29.86 "HgN/A
3:50 PM84 °FScattered clouds.9 mph29%29.86 "HgN/A
3:20 PM86 °FScattered clouds.12 mph24%29.86 "HgN/A
2:50 PM84 °FScattered clouds.10 mph27%29.89 "HgN/A
2:20 PM84 °FScattered clouds.6 mph27%29.89 "HgN/A
1:50 PM86 °FScattered clouds.3 mph25%29.89 "HgN/A
1:20 PM84 °FScattered clouds.3 mph27%29.89 "HgN/A
12:50 PM84 °FScattered clouds.No wind29%29.92 "HgN/A
12:20 PM84 °FScattered clouds.2 mph27%29.92 "HgN/A
Weather by CustomWeather, © 2015

See weather overviewHow to use our weather pages